User: anonymous   Login
Location: Mt. Bigelow
(32.4165°N, 110.7345°W)
Time: 10:33:01
(UTC-07:00)
Language:

N. Korean satellite - Orbit

View from above orbital plane
View from above orbital plane
View from above satellite
View from above satellite

Ground track
Ground track

The orbit data is extracted from the following two-line orbital elements,

1 39026U 12072A   19293.44047041  .00001506  00000-0  56495-4 0  9995
2 39026  97.2156 292.6241 0038556  23.9017 336.4002 15.28080073380493
Epoch (UTC): 20 October 2019 10:34:16
Eccentricity: 0.0038556
inclination: 97.2156°
perigee height: 455 km
apogee height: 508 km
right ascension of ascending node: 292.6241°
argument of perigee: 23.9017°
revolutions per day: 15.28080073
mean anomaly at epoch: 336.4002°
orbit number at epoch: 38049

The dashed part of the orbit path shows where the satellite is in the earth's shadow,  

DLR